Flag for West Bank Weather past 2 weeks in Hebron, West Bank

Now
84 °F

Sunny.


Feels Like: 83 °F
Forecast: 68 / 87 °F
Wind: 14 mph from Northwest

Location: Ben Gurion International Airport

Current Time: May 26, 2015 at 3:42:27 PM

Latest Report: May 26, 2015 at 3:20 PM


Visibility: 10 mi

Pressure: 29.89 "Hg

Humidity: 40%

Dew point: 57 °F

Location of HebronLocation

Historic Weather in Hebron — Graph

°F

Hebron temperature yesterday

Maximum temperature yesterday: 99 °F (at 12:20 PM)
Minimum temperature yesterday: 70 °F (at 6:20 AM)
Average temperature yesterday: 85 °F

Past Weeks' High & Low Weather Summary

 TemperatureHumidityPressure
High106 °F (May 18, 4:50 PM)83% (May 12, 11:50 PM)30.18 "Hg (May 12, 11:50 PM)
Low59 °F (May 16, 4:50 AM)6% (May 18, 12:20 PM)29.71 "Hg (May 19, 1:20 AM)
Average76 °F54%29.92 "Hg
* Reported May 11 2:20 PM — May 26 2:20 PM, Hebron, Weather by CustomWeather, © 2015

Note: Actual official high and low records may vary slightly from our data, if they occured in-between our weather recording intervals... More about our weather records

Advertising

Hebron weather history for previous 24 hours

 ConditionsComfort  
Time TempWeatherWind HumidityBarometerVisibility
2:20 PM
Tue, May 26
90 °FSunny.9 mph38%29.89 "Hg10 mi
1:50 PM88 °FSunny.8 mph40%29.89 "Hg10 mi
1:20 PM86 °FSunny.9 mph52%29.89 "Hg10 mi
12:50 PM84 °FSunny.12 mph58%29.92 "Hg10 mi
12:20 PM86 °FPassing clouds.9 mph52%29.89 "HgN/A
11:50 AM88 °FSunny.3 mph40%29.92 "Hg10 mi
11:20 AM90 °FSunny.1 mph31%29.92 "Hg10 mi
10:50 AM88 °FSunny.3 mph33%29.92 "Hg10 mi
10:20 AM86 °FSunny.2 mph38%29.92 "Hg10 mi
9:50 AM84 °FSunny.2 mph37%29.92 "Hg10 mi
9:20 AM82 °FSunny.2 mph45%29.92 "Hg10 mi
8:50 AM81 °FSunny.1 mph54%29.92 "Hg10 mi
8:20 AM79 °FSunny.2 mph65%29.92 "Hg10 mi
7:50 AM75 °FPassing clouds.5 mph74%29.92 "HgN/A
7:20 AM75 °FClear.3 mph74%29.92 "Hg6 mi
6:50 AM73 °FClear.3 mph83%29.92 "Hg4 mi
6:20 AM73 °FClear.2 mph74%29.92 "Hg5 mi
5:50 AM73 °FClear.2 mph74%29.89 "Hg10 mi
5:20 AM72 °FClear.3 mph78%29.89 "Hg10 mi
4:50 AM72 °FClear.1 mph83%29.89 "Hg10 mi
4:20 AM73 °FClear.2 mph83%29.89 "Hg10 mi
3:50 AM73 °FPassing clouds.3 mph83%29.89 "HgN/A
3:20 AM73 °FPassing clouds.5 mph83%29.89 "HgN/A
2:50 AM73 °FPassing clouds.3 mph83%29.89 "HgN/A
2:20 AM73 °FPassing clouds.7 mph83%29.89 "HgN/A
1:50 AM75 °FPassing clouds.8 mph83%29.89 "HgN/A
1:20 AM75 °FClear.8 mph83%29.89 "Hg10 mi
12:50 AM75 °FClear.12 mph78%29.86 "Hg10 mi
12:20 AM77 °FClear.12 mph74%29.86 "Hg10 mi
11:20 PM
Mon, May 25
77 °FClear.5 mph54%29.83 "Hg10 mi
10:50 PM79 °FClear.1 mph39%29.83 "Hg10 mi
10:20 PM81 °FClear.2 mph32%29.83 "Hg10 mi
9:50 PM82 °FClear.1 mph37%29.83 "Hg10 mi
9:20 PM82 °FClear.No wind37%29.83 "Hg10 mi
8:50 PM84 °FClear.3 mph33%29.83 "Hg10 mi
8:20 PM86 °FSunny.1 mph29%29.83 "Hg10 mi
7:50 PM88 °FSunny.5 mph25%29.83 "Hg10 mi
7:20 PM90 °FSunny.7 mph21%29.83 "Hg10 mi
6:50 PM91 °FSunny.8 mph21%29.83 "Hg10 mi
6:20 PM93 °FSunny.10 mph21%29.83 "Hg10 mi
5:50 PM95 °FSunny.8 mph20%29.83 "Hg10 mi
5:20 PM97 °FSunny.7 mph19%29.86 "Hg10 mi
4:50 PM97 °FSunny.8 mph19%29.86 "Hg10 mi
4:20 PM97 °FSunny.8 mph18%29.86 "Hg10 mi
3:50 PM95 °FSunny.10 mph22%29.86 "Hg10 mi
3:20 PM95 °FSunny.12 mph19%29.86 "Hg10 mi
Weather by CustomWeather, © 2015

See weather overviewHow to use our weather pages